Weather History for KORE - February, 2014

Change the Weather History Date:

Sunday, February 23, 2014

  Actual Average Record
Temperature  
Mean Temperature 34 °F -  
Max Temperature 45 °F 35 °F 48 °F (2012)
Min Temperature 24 °F 15 °F -6 °F (2015)
Degree Days  
Heating Degree Days 30    
Moisture  
Dew Point 25 °F    
Average Humidity 74    
Maximum Humidity 96    
Minimum Humidity 42    
Precipitation  
Precipitation 0.00 in - - ()
Sea Level Pressure  
Sea Level Pressure 29.91 in    
Wind  
Wind Speed 2 mph (SSW)    
Max Wind Speed 12 mph    
Max Gust Speed -    
Visibility 10 miles    
Events      
Averages and records for this station are not official NWS values.
T = Trace of Precipitation, MM = Missing Value Source: NWS Daily Summary

Daily Weather History Graph

Daily Weather History Graph

Search for Another Location

Airport or City:

Trip Planner

Search our weather history database for the weather conditions in past years. The results will help you decide how hot, cold, wet, or windy it might be!

Date:

Astronomy

Feb. 23, 2014 Rise Set
Actual Time 6:34 AM EST 5:31 PM EST
Civil Twilight 6:05 AM EST 5:59 PM EST
Nautical Twilight 5:33 AM EST 6:32 PM EST
Astronomical Twilight 5:00 AM EST 7:05 PM EST
Moon 1:33 AM EST (2/23) 11:27 AM EST (2/23)
Length of Visible Light 11h 54m
Length of Day
10h 57m
Last Quarter, 39% of the Moon is Illuminated
Feb 23
Last Quarter
Mar 1
New
Mar 8
First Quarter
Mar 16
Full
Mar 23
Last Quarter

Hourly Weather History & Observations

Time (EST) Temp. Windchill Dew Point Humidity Pressure Visibility Wind Dir Wind Speed Gust Speed Precip Events Conditions
12:52 AM 25.0 °F - 21.0 °F 85% 29.97 in 10.0 mi Calm Calm - N/A   Partly Cloudy
1:52 AM 24.1 °F - 21.0 °F 88% 29.98 in 10.0 mi Calm Calm - N/A   Mostly Cloudy
2:52 AM 27.0 °F - 23.0 °F 85% 29.99 in 10.0 mi Calm Calm - N/A   Overcast
3:52 AM 28.0 °F 24.2 °F 24.1 °F 85% 29.97 in 10.0 mi NE 3.5 mph - N/A   Overcast
4:52 AM 26.1 °F - 23.0 °F 88% 29.96 in 10.0 mi Calm Calm - N/A   Overcast
5:52 AM 27.0 °F - 23.0 °F 85% 29.97 in 10.0 mi Calm Calm - N/A   Mostly Cloudy
6:52 AM 24.1 °F - 23.0 °F 96% 29.99 in 10.0 mi Calm Calm - N/A   Partly Cloudy
7:52 AM 26.1 °F - 24.1 °F 92% 29.99 in 10.0 mi Calm Calm - N/A   Clear
8:52 AM 30.0 °F - 26.1 °F 85% 29.99 in 10.0 mi Calm Calm - N/A   Overcast
9:52 AM 33.1 °F - 26.1 °F 75% 29.98 in 10.0 mi Calm Calm - N/A   Partly Cloudy
10:52 AM 36.0 °F - 25.0 °F 64% 29.96 in 10.0 mi Calm Calm - N/A   Clear
11:52 AM 42.1 °F 37.1 °F 24.1 °F 49% 29.93 in 10.0 mi South 8.1 mph - N/A   Mostly Cloudy
12:52 PM 44.1 °F 38.6 °F 23.0 °F 43% 29.91 in 10.0 mi SSW 10.4 mph - N/A   Overcast
1:52 PM 45.0 °F 39.3 °F 23.0 °F 42% 29.87 in 10.0 mi SSW 11.5 mph - N/A   Partly Cloudy
2:52 PM 43.0 °F 37.7 °F 24.1 °F 47% 29.87 in 10.0 mi SW 9.2 mph - N/A   Overcast
3:52 PM 45.0 °F 40.1 °F 23.0 °F 42% 29.85 in 10.0 mi SSW 9.2 mph - N/A   Overcast
4:52 PM 42.1 °F 38.4 °F 25.0 °F 51% 29.84 in 10.0 mi South 5.8 mph - N/A   Overcast
5:52 PM 36.0 °F - 28.0 °F 73% 29.84 in 10.0 mi Calm Calm - N/A   Scattered Clouds
6:52 PM 34.0 °F - 27.0 °F 75% 29.84 in 10.0 mi Calm Calm - N/A   Scattered Clouds
7:52 PM 33.1 °F - 27.0 °F 78% 29.84 in 10.0 mi Calm Calm - N/A   Clear
8:52 PM 32.0 °F - 27.0 °F 82% 29.83 in 10.0 mi Calm Calm - N/A   Partly Cloudy
9:52 PM 30.9 °F - 27.0 °F 85% 29.81 in 10.0 mi Calm Calm - N/A   Clear
10:52 PM 30.0 °F - 27.0 °F 88% 29.80 in 10.0 mi Calm Calm - N/A   Partly Cloudy
11:52 PM 30.0 °F - 27.0 °F 88% 29.80 in 10.0 mi Calm Calm - N/A   Overcast